Time,TemperatureF,DewpointF,PressureIn,WindDirection,WindDirectionDegrees,WindSpeedMPH,WindSpeedGustMPH,Humidity,HourlyPrecipIn,Conditions,Clouds,dailyrainin,SoftwareType,DateUTC
2013-03-26 00:00:00,41.0,5.1,30.28,North,360,0.0,0.0,22,0.00,,---,0.00,VWS V14.01,2013-03-26 06:00:00,
2013-03-26 00:10:00,40.0,5.2,30.29,NE,45,0.0,0.0,23,0.00,,---,0.00,VWS V14.01,2013-03-26 06:10:00,
2013-03-26 00:20:00,39.0,5.3,30.30,North,360,0.0,0.0,24,0.00,,---,0.00,VWS V14.01,2013-03-26 06:20:00,
2013-03-26 00:30:00,38.0,4.4,30.29,NW,315,0.0,0.0,24,0.00,,---,0.00,VWS V14.01,2013-03-26 06:30:00,
2013-03-26 00:40:00,38.0,5.3,30.29,NNE,22,0.0,0.0,25,0.00,,---,0.00,VWS V14.01,2013-03-26 06:40:00,
2013-03-26 00:50:00,37.0,5.3,30.30,NNW,337,0.0,0.0,26,0.00,,---,0.00,VWS V14.01,2013-03-26 06:50:00,
2013-03-26 01:00:00,37.0,5.3,30.30,North,360,0.0,0.0,26,0.00,,---,0.00,VWS V14.01,2013-03-26 07:00:00,
2013-03-26 01:10:00,36.0,4.4,30.30,North,360,0.0,0.0,26,0.00,,---,0.00,VWS V14.01,2013-03-26 07:10:00,
2013-03-26 01:20:00,36.0,5.3,30.30,NNW,337,0.0,0.0,27,0.00,,---,0.00,VWS V14.01,2013-03-26 07:20:00,
2013-03-26 01:30:00,35.0,4.4,30.30,NNW,337,0.0,0.0,27,0.00,,---,0.00,VWS V14.01,2013-03-26 07:30:00,
2013-03-26 01:40:00,35.0,5.2,30.31,North,360,4.0,14.0,28,0.00,,---,0.00,VWS V14.01,2013-03-26 07:40:00,
2013-03-26 01:50:00,35.0,6.0,30.30,North,360,0.0,14.0,29,0.00,,---,0.00,VWS V14.01,2013-03-26 07:50:00,
2013-03-26 02:00:00,34.0,5.1,30.31,North,360,2.0,13.0,29,0.00,,---,0.00,VWS V14.01,2013-03-26 08:00:00,
2013-03-26 02:10:00,34.0,5.1,30.31,NE,45,3.0,13.0,29,0.00,,---,0.00,VWS V14.01,2013-03-26 08:10:00,
2013-03-26 02:20:00,34.0,5.8,30.31,NE,45,7.0,10.0,30,0.00,,---,0.00,VWS V14.01,2013-03-26 08:20:00,
2013-03-26 02:30:00,34.0,5.8,30.30,NE,45,0.0,12.0,30,0.00,,---,0.00,VWS V14.01,2013-03-26 08:30:00,
2013-03-26 02:40:00,34.0,6.6,30.31,NE,45,0.0,10.0,31,0.00,,---,0.00,VWS V14.01,2013-03-26 08:40:00,
2013-03-26 02:50:00,34.0,6.6,30.31,NNW,337,2.0,11.0,31,0.00,,---,0.00,VWS V14.01,2013-03-26 08:50:00,
2013-03-26 03:00:00,34.0,6.6,30.31,NE,45,0.0,15.0,31,0.00,,---,0.00,VWS V14.01,2013-03-26 09:00:00,
2013-03-26 03:10:00,34.0,6.6,30.31,North,360,6.0,10.0,31,0.00,,---,0.00,VWS V14.01,2013-03-26 09:10:00,
2013-03-26 03:20:00,33.0,5.7,30.31,NNE,22,0.0,9.0,31,0.00,,---,0.00,VWS V14.01,2013-03-26 09:20:00,
2013-03-26 03:30:00,33.0,5.7,30.31,North,360,0.0,12.0,31,0.00,,---,0.00,VWS V14.01,2013-03-26 09:30:00,
2013-03-26 03:40:00,33.0,6.4,30.31,North,360,0.0,11.0,32,0.00,,---,0.00,VWS V14.01,2013-03-26 09:40:00,
2013-03-26 03:50:00,32.0,6.2,30.31,NNE,22,0.0,5.0,33,0.00,,---,0.00,VWS V14.01,2013-03-26 09:50:00,
2013-03-26 04:00:00,32.0,6.2,30.31,North,360,10.0,10.0,33,0.00,,---,0.00,VWS V14.01,2013-03-26 10:00:00,
2013-03-26 04:10:00,32.0,6.2,30.31,NNE,22,0.0,10.0,33,0.00,,---,0.00,VWS V14.01,2013-03-26 10:10:00,
2013-03-26 04:20:00,31.0,5.3,30.31,North,360,0.0,7.0,33,0.00,,---,0.00,VWS V14.01,2013-03-26 10:20:00,
2013-03-26 04:30:00,31.0,5.9,30.30,NE,45,0.0,11.0,34,0.00,,---,0.00,VWS V14.01,2013-03-26 10:30:00,
2013-03-26 04:40:00,31.0,5.9,30.31,NNE,22,0.0,11.0,34,0.00,,---,0.00,VWS V14.01,2013-03-26 10:40:00,
2013-03-26 04:50:00,31.0,5.9,30.31,NNE,22,1.0,10.0,34,0.00,,---,0.00,VWS V14.01,2013-03-26 10:50:00,
2013-03-26 05:00:00,31.0,5.9,30.31,NNE,22,0.0,10.0,34,0.00,,---,0.00,VWS V14.01,2013-03-26 11:00:00,
2013-03-26 05:10:00,30.0,5.7,30.31,NNE,22,5.0,6.0,35,0.00,,---,0.00,VWS V14.01,2013-03-26 11:10:00,
2013-03-26 05:20:00,30.0,5.7,30.31,NNE,22,0.0,5.0,35,0.00,,---,0.00,VWS V14.01,2013-03-26 11:20:00,
2013-03-26 05:30:00,30.0,5.7,30.31,NNW,337,0.0,6.0,35,0.00,,---,0.00,VWS V14.01,2013-03-26 11:30:00,
2013-03-26 05:40:00,30.0,5.7,30.31,North,360,0.0,7.0,35,0.00,,---,0.00,VWS V14.01,2013-03-26 11:40:00,
2013-03-26 05:50:00,30.0,5.7,30.31,NNW,337,0.0,0.0,35,0.00,,---,0.00,VWS V14.01,2013-03-26 11:50:00,
2013-03-26 06:00:00,30.0,6.3,30.32,NNE,22,0.0,0.0,36,0.00,,---,0.00,VWS V14.01,2013-03-26 12:00:00,
2013-03-26 06:10:00,30.0,5.7,30.32,North,360,0.0,0.0,35,0.00,,---,0.00,VWS V14.01,2013-03-26 12:10:00,
2013-03-26 06:20:00,30.0,5.7,30.32,North,360,0.0,0.0,35,0.00,,---,0.00,VWS V14.01,2013-03-26 12:20:00,
2013-03-26 06:30:00,30.0,6.3,30.32,NNE,22,0.0,7.0,36,0.00,,---,0.00,VWS V14.01,2013-03-26 12:30:00,
2013-03-26 06:40:00,29.0,5.4,30.33,ENE,67,0.0,5.0,36,0.00,,---,0.00,VWS V14.01,2013-03-26 12:40:00,
2013-03-26 06:50:00,29.0,5.4,30.33,NE,45,0.0,8.0,36,0.00,,---,0.00,VWS V14.01,2013-03-26 12:50:00,
2013-03-26 07:00:00,29.0,6.0,30.33,NE,45,0.0,0.0,37,0.00,,---,0.00,VWS V14.01,2013-03-26 13:00:00,
2013-03-26 07:10:00,29.0,6.0,30.33,NNE,22,0.0,0.0,37,0.00,,---,0.00,VWS V14.01,2013-03-26 13:10:00,
2013-03-26 07:20:00,29.0,6.0,30.34,NNE,22,0.0,0.0,37,0.00,,---,0.00,VWS V14.01,2013-03-26 13:20:00,
2013-03-26 07:30:00,30.0,6.3,30.34,NE,45,0.0,0.0,36,0.00,,---,0.00,VWS V14.01,2013-03-26 13:30:00,
2013-03-26 07:40:00,31.0,6.6,30.33,NE,45,0.0,0.0,35,0.00,,---,0.00,VWS V14.01,2013-03-26 13:40:00,
2013-03-26 07:50:00,32.0,6.2,30.33,NE,45,0.0,0.0,33,0.00,,---,0.00,VWS V14.01,2013-03-26 13:50:00,
2013-03-26 08:00:00,32.0,6.2,30.32,NNE,22,0.0,0.0,33,0.00,,---,0.00,VWS V14.01,2013-03-26 14:00:00,
2013-03-26 08:10:00,33.0,5.7,30.32,NE,45,10.0,10.0,31,0.00,,---,0.00,VWS V14.01,2013-03-26 14:10:00,
2013-03-26 08:19:00,34.0,5.8,30.31,ENE,67,0.0,10.0,30,0.00,,---,0.00,VWS V14.01,2013-03-26 14:19:00,
2013-03-26 08:29:00,36.0,6.8,30.31,NE,45,0.0,4.0,29,0.00,,---,0.00,VWS V14.01,2013-03-26 14:29:00,
2013-03-26 08:39:00,36.0,5.3,30.30,ENE,67,0.0,0.0,27,0.00,,---,0.00,VWS V14.01,2013-03-26 14:39:00,
2013-03-26 08:49:00,38.0,6.2,30.30,ENE,67,0.0,0.0,26,0.00,,---,0.00,VWS V14.01,2013-03-26 14:49:00,
2013-03-26 08:59:00,37.0,6.1,30.29,East,90,0.0,0.0,27,0.00,,---,0.00,VWS V14.01,2013-03-26 14:59:00,
2013-03-26 09:09:00,38.0,6.2,30.29,ENE,67,0.0,0.0,26,0.00,,---,0.00,VWS V14.01,2013-03-26 15:09:00,
2013-03-26 09:19:00,39.0,7.0,30.29,ENE,67,0.0,0.0,26,0.00,,---,0.00,VWS V14.01,2013-03-26 15:19:00,
2013-03-26 09:29:00,40.0,7.0,30.29,ENE,67,0.0,0.0,25,0.00,,---,0.00,VWS V14.01,2013-03-26 15:29:00,
2013-03-26 09:39:00,42.0,7.8,30.29,East,90,0.0,0.0,24,0.00,,---,0.00,VWS V14.01,2013-03-26 15:39:00,
2013-03-26 09:49:00,42.0,6.9,30.28,East,90,0.0,0.0,23,0.00,,---,0.00,VWS V14.01,2013-03-26 15:49:00,
2013-03-26 09:59:00,43.0,6.8,30.27,ESE,112,0.0,0.0,22,0.00,,---,0.00,VWS V14.01,2013-03-26 15:59:00,
2013-03-26 10:09:00,42.0,6.9,30.27,ESE,112,0.0,8.0,23,0.00,,---,0.00,VWS V14.01,2013-03-26 16:09:00,
2013-03-26 10:19:00,45.0,8.5,30.27,South,180,0.0,9.0,22,0.00,,---,0.00,VWS V14.01,2013-03-26 16:19:00,
2013-03-26 10:29:00,46.0,8.3,30.26,ESE,112,0.0,0.0,21,0.00,,---,0.00,VWS V14.01,2013-03-26 16:29:00,
2013-03-26 10:49:00,46.0,8.3,30.26,ESE,112,12.0,12.0,21,0.00,,---,0.00,VWS V14.01,2013-03-26 16:49:00,
2013-03-26 11:00:00,47.0,8.0,30.26,SSE,157,0.0,12.0,20,0.00,,---,0.00,VWS V14.01,2013-03-26 17:00:00,
2013-03-26 11:09:00,47.0,8.0,30.25,ESE,112,9.0,15.0,20,0.00,,---,0.00,VWS V14.01,2013-03-26 17:09:00,
2013-03-26 11:19:00,48.0,8.9,30.25,SE,135,3.0,13.0,20,0.00,,---,0.00,VWS V14.01,2013-03-26 17:19:00,
2013-03-26 11:29:00,48.0,8.9,30.25,SSE,157,0.0,13.0,20,0.00,,---,0.00,VWS V14.01,2013-03-26 17:29:00,
2013-03-26 11:40:00,48.0,8.9,30.24,SE,135,0.0,13.0,20,0.00,,---,0.00,VWS V14.01,2013-03-26 17:40:00,
2013-03-26 11:49:00,49.0,9.7,30.24,ESE,112,5.0,14.0,20,0.00,,---,0.00,VWS V14.01,2013-03-26 17:49:00,
2013-03-26 11:59:00,49.0,8.6,30.24,SSW,202,6.0,13.0,19,0.00,,---,0.00,VWS V14.01,2013-03-26 17:59:00,
2013-03-26 12:09:00,51.0,9.0,30.23,SSE,157,2.0,12.0,18,0.00,,---,0.00,VWS V14.01,2013-03-26 18:09:00,
2013-03-26 12:19:00,51.0,9.0,30.22,SSE,157,5.0,15.0,18,0.00,,---,0.00,VWS V14.01,2013-03-26 18:19:00,
2013-03-26 12:29:00,52.0,11.0,30.21,SE,135,5.0,13.0,19,0.00,,---,0.00,VWS V14.01,2013-03-26 18:29:00,
2013-03-26 12:39:00,52.0,9.8,30.21,South,180,8.0,16.0,18,0.00,,---,0.00,VWS V14.01,2013-03-26 18:39:00,
2013-03-26 12:49:00,53.0,10.6,30.20,SE,135,0.0,15.0,18,0.00,,---,0.00,VWS V14.01,2013-03-26 18:49:00,
2013-03-26 12:59:00,54.0,11.5,30.20,ESE,112,10.0,12.0,18,0.00,,---,0.00,VWS V14.01,2013-03-26 18:59:00,
2013-03-26 13:09:00,55.0,11.0,30.19,SE,135,2.0,15.0,17,0.00,,---,0.00,VWS V14.01,2013-03-26 19:09:00,
2013-03-26 13:19:00,56.0,11.8,30.19,SSE,157,9.0,14.0,17,0.00,,---,0.00,VWS V14.01,2013-03-26 19:19:00,
2013-03-26 13:29:00,56.0,11.8,30.18,ESE,112,10.0,15.0,17,0.00,,---,0.00,VWS V14.01,2013-03-26 19:29:00,
2013-03-26 13:40:00,57.0,11.3,30.17,SE,135,10.0,16.0,16,0.00,,---,0.00,VWS V14.01,2013-03-26 19:40:00,
2013-03-26 13:49:00,58.0,10.6,30.16,ESE,112,16.0,20.0,15,0.00,,---,0.00,VWS V14.01,2013-03-26 19:49:00,
2013-03-26 13:59:00,57.0,9.8,30.16,SE,135,5.0,18.0,15,0.00,,---,0.00,VWS V14.01,2013-03-26 19:59:00,
2013-03-26 14:09:00,58.0,12.1,30.15,South,180,9.0,19.0,16,0.00,,---,0.00,VWS V14.01,2013-03-26 20:09:00,
2013-03-26 14:19:00,59.0,11.4,30.15,SSE,157,10.0,17.0,15,0.00,,---,0.00,VWS V14.01,2013-03-26 20:19:00,
2013-03-26 14:29:00,61.0,11.5,30.13,South,180,6.0,13.0,14,0.00,,---,0.00,VWS V14.01,2013-03-26 20:29:00,
2013-03-26 14:39:00,60.0,10.7,30.12,SE,135,5.0,16.0,14,0.00,,---,0.00,VWS V14.01,2013-03-26 20:39:00,
2013-03-26 14:49:00,61.0,11.5,30.11,SSE,157,6.0,17.0,14,0.00,,---,0.00,VWS V14.01,2013-03-26 20:49:00,
2013-03-26 14:59:00,61.0,11.5,30.10,SE,135,0.0,13.0,14,0.00,,---,0.00,VWS V14.01,2013-03-26 20:59:00,
2013-03-26 15:09:00,61.0,11.5,30.10,SE,135,8.0,18.0,14,0.00,,---,0.00,VWS V14.01,2013-03-26 21:09:00,
2013-03-26 15:19:00,62.0,10.6,30.10,SSE,157,6.0,16.0,13,0.00,,---,0.00,VWS V14.01,2013-03-26 21:19:00,
2013-03-26 15:29:00,63.0,11.4,30.09,SE,135,9.0,19.0,13,0.00,,---,0.00,VWS V14.01,2013-03-26 21:29:00,
2013-03-26 15:39:00,62.0,10.6,30.08,SE,135,11.0,14.0,13,0.00,,---,0.00,VWS V14.01,2013-03-26 21:39:00,
2013-03-26 15:49:00,63.0,11.4,30.08,East,90,7.0,16.0,13,0.00,,---,0.00,VWS V14.01,2013-03-26 21:49:00,
2013-03-26 15:59:00,63.0,9.6,30.07,SW,225,12.0,15.0,12,0.00,,---,0.00,VWS V14.01,2013-03-26 21:59:00,
2013-03-26 16:09:00,63.0,9.6,30.06,ENE,67,0.0,22.0,12,0.00,,---,0.00,VWS V14.01,2013-03-26 22:09:00,
2013-03-26 16:19:00,62.0,10.6,30.06,SE,135,0.0,19.0,13,0.00,,---,0.00,VWS V14.01,2013-03-26 22:19:00,
2013-03-26 16:30:00,61.0,9.8,30.06,SSE,157,0.0,11.0,13,0.00,,---,0.00,VWS V14.01,2013-03-26 22:30:00,
2013-03-26 16:39:00,63.0,9.6,30.06,SE,135,4.0,17.0,12,0.00,,---,0.00,VWS V14.01,2013-03-26 22:39:00,
2013-03-26 16:49:00,63.0,9.6,30.05,ESE,112,8.0,18.0,12,0.00,,---,0.00,VWS V14.01,2013-03-26 22:49:00,
2013-03-26 16:59:00,63.0,9.6,30.05,SSE,157,0.0,15.0,12,0.00,,---,0.00,VWS V14.01,2013-03-26 22:59:00,
2013-03-26 17:09:00,64.0,12.2,30.04,SSE,157,4.0,16.0,13,0.00,,---,0.00,VWS V14.01,2013-03-26 23:09:00,
2013-03-26 17:20:00,64.0,12.2,30.04,South,180,0.0,18.0,13,0.00,,---,0.00,VWS V14.01,2013-03-26 23:20:00,
2013-03-26 17:29:00,63.0,9.6,30.04,ESE,112,0.0,11.0,12,0.00,,---,0.00,VWS V14.01,2013-03-26 23:29:00,
2013-03-26 17:39:00,64.0,12.2,30.04,South,180,1.0,15.0,13,0.00,,---,0.00,VWS V14.01,2013-03-26 23:39:00,
2013-03-26 17:49:00,64.0,12.2,30.05,SE,135,0.0,12.0,13,0.00,,---,0.00,VWS V14.01,2013-03-26 23:49:00,
2013-03-26 18:00:00,63.0,9.6,30.04,SSE,157,0.0,14.0,12,0.00,,---,0.00,VWS V14.01,2013-03-27 00:00:00,
2013-03-26 18:09:00,62.0,10.6,30.04,ENE,67,4.0,9.0,13,0.00,,---,0.00,VWS V14.01,2013-03-27 00:09:00,
2013-03-26 18:19:00,61.0,11.5,30.05,SSE,157,0.0,7.0,14,0.00,,---,0.00,VWS V14.01,2013-03-27 00:19:00,
2013-03-26 18:30:00,61.0,11.5,30.05,South,180,10.0,13.0,14,0.00,,---,0.00,VWS V14.01,2013-03-27 00:30:00,
2013-03-26 18:39:00,60.0,10.7,30.06,SE,135,7.0,11.0,14,0.00,,---,0.00,VWS V14.01,2013-03-27 00:39:00,
2013-03-26 18:49:00,60.0,12.2,30.06,South,180,7.0,10.0,15,0.00,,---,0.00,VWS V14.01,2013-03-27 00:49:00,
2013-03-26 18:59:00,60.0,12.2,30.08,North,360,1.0,12.0,15,0.00,,---,0.00,VWS V14.01,2013-03-27 00:59:00,
2013-03-26 19:09:00,59.0,11.4,30.07,South,180,5.0,12.0,15,0.00,,---,0.00,VWS V14.01,2013-03-27 01:09:00,
2013-03-26 19:19:00,59.0,12.9,30.08,South,180,7.0,14.0,16,0.00,,---,0.00,VWS V14.01,2013-03-27 01:19:00,
2013-03-26 19:29:00,58.0,12.1,30.07,SE,135,6.0,15.0,16,0.00,,---,0.00,VWS V14.01,2013-03-27 01:29:00,
2013-03-26 19:39:00,58.0,13.4,30.08,SSE,157,7.0,13.0,17,0.00,,---,0.00,VWS V14.01,2013-03-27 01:39:00,
2013-03-26 19:49:00,57.0,12.6,30.07,SE,135,7.0,13.0,17,0.00,,---,0.00,VWS V14.01,2013-03-27 01:49:00,
2013-03-26 19:59:00,57.0,12.6,30.08,SSW,202,1.0,13.0,17,0.00,,---,0.00,VWS V14.01,2013-03-27 01:59:00,
2013-03-26 20:09:00,56.0,11.8,30.08,SSE,157,0.0,13.0,17,0.00,,---,0.00,VWS V14.01,2013-03-27 02:09:00,
2013-03-26 20:19:00,56.0,13.1,30.08,North,360,0.0,8.0,18,0.00,,---,0.00,VWS V14.01,2013-03-27 02:19:00,
2013-03-26 20:29:00,56.0,13.1,30.09,SSE,157,6.0,13.0,18,0.00,,---,0.00,VWS V14.01,2013-03-27 02:29:00,
2013-03-26 20:39:00,56.0,13.1,30.09,ESE,112,5.0,14.0,18,0.00,,---,0.00,VWS V14.01,2013-03-27 02:39:00,
2013-03-26 20:50:00,55.0,12.3,30.10,SSW,202,0.0,14.0,18,0.00,,---,0.00,VWS V14.01,2013-03-27 02:50:00,
2013-03-26 20:59:00,55.0,13.5,30.10,SSW,202,6.0,13.0,19,0.00,,---,0.00,VWS V14.01,2013-03-27 02:59:00,
2013-03-26 21:09:00,55.0,13.5,30.10,SSE,157,3.0,13.0,19,0.00,,---,0.00,VWS V14.01,2013-03-27 03:09:00,
2013-03-26 21:19:00,55.0,13.5,30.10,SSE,157,1.0,13.0,19,0.00,,---,0.00,VWS V14.01,2013-03-27 03:19:00,
2013-03-26 21:29:00,54.0,12.7,30.10,South,180,4.0,11.0,19,0.00,,---,0.00,VWS V14.01,2013-03-27 03:29:00,
2013-03-26 21:39:00,54.0,12.7,30.10,South,180,8.0,10.0,19,0.00,,---,0.00,VWS V14.01,2013-03-27 03:39:00,
2013-03-26 21:49:00,54.0,12.7,30.10,SE,135,0.0,8.0,19,0.00,,---,0.00,VWS V14.01,2013-03-27 03:49:00,
2013-03-26 21:59:00,53.0,13.0,30.11,SSE,157,6.0,9.0,20,0.00,,---,0.00,VWS V14.01,2013-03-27 03:59:00,
2013-03-26 22:09:00,52.0,12.2,30.11,SSE,157,0.0,6.0,20,0.00,,---,0.00,VWS V14.01,2013-03-27 04:09:00,
2013-03-26 22:19:00,51.0,11.4,30.12,South,180,0.0,0.0,20,0.00,,---,0.00,VWS V14.01,2013-03-27 04:19:00,
2013-03-26 22:29:00,51.0,11.4,30.12,North,360,0.0,0.0,20,0.00,,---,0.00,VWS V14.01,2013-03-27 04:29:00,
2013-03-26 22:39:00,51.0,11.4,30.13,SW,225,0.0,6.0,20,0.00,,---,0.00,VWS V14.01,2013-03-27 04:39:00,
2013-03-26 22:49:00,50.0,11.6,30.13,South,180,0.0,0.0,21,0.00,,---,0.00,VWS V14.01,2013-03-27 04:49:00,
2013-03-26 22:59:00,49.0,10.8,30.14,SSW,202,0.0,0.0,21,0.00,,---,0.00,VWS V14.01,2013-03-27 04:59:00,
2013-03-26 23:09:00,48.0,11.0,30.14,SSE,157,0.0,0.0,22,0.00,,---,0.00,VWS V14.01,2013-03-27 05:09:00,
2013-03-26 23:19:00,48.0,11.0,30.15,SSE,157,0.0,0.0,22,0.00,,---,0.00,VWS V14.01,2013-03-27 05:19:00,
2013-03-26 23:29:00,47.0,10.1,30.15,SE,135,0.0,0.0,22,0.00,,---,0.00,VWS V14.01,2013-03-27 05:29:00,
2013-03-26 23:39:00,46.0,9.3,30.16,SE,135,0.0,0.0,22,0.00,,---,0.00,VWS V14.01,2013-03-27 05:39:00,
2013-03-26 23:49:00,45.0,8.5,30.16,SE,135,0.0,0.0,22,0.00,,---,0.00,VWS V14.01,2013-03-27 05:49:00,
2013-03-26 23:59:00,45.0,8.5,30.16,SE,135,0.0,0.0,22,0.00,,---,0.00,VWS V14.01,2013-03-27 05:59:00,